Location: Isle of Man Observatory
(54.1776°N, 4.6264°W)
Time: 12:39:42
(UTC+02:00)

Amateur Radio Satellites - All Passes

Search period start: 22 July 2017 12:09
Search period end: 23 July 2017 12:09
Location: Isle of Man Observatory, 54.1776°N, 4.6264°W

Satellite Date Start Highest point End Downlink Frequencies (MHz)
Time Altitude Azimuth
PRISM 22 Jul 12:15:03 12:18:33 27° 266° (W) 12:22:06 437.425
POLYITAN 1 22 Jul 12:17:58 12:21:52 35° 64° (ENE) 12:25:45 437.675
PCSat 22 Jul 12:20:55 12:25:02 21° 2° (N) 12:29:08 145.827
DUCHIFAT 1 22 Jul 12:20:58 12:24:43 31° 63° (ENE) 12:28:28 145.980
AO-7 22 Jul 12:22:20 12:26:20 14° 11° (N) 12:30:20 .
ESTCUBE 1 22 Jul 12:26:49 12:28:20 11° 84° (E) 12:29:52 437.505/2401.250
QB50P2 22 Jul 12:30:31 12:34:37 47° 68° (ENE) 12:38:44 145.880/145.840
UWE-3 22 Jul 12:34:48 12:36:55 14° 308° (NW) 12:39:00 435.000/436.395/437.385
FO-29 22 Jul 12:36:48 12:43:06 27° 275° (W) 12:49:35 435.910
EO-79 22 Jul 12:43:44 12:47:55 57° 70° (ENE) 12:52:07 145.935-145.965
NANOSAT C BR1 22 Jul 12:46:05 12:50:15 55° 69° (ENE) 12:54:26 145.865
UNISAT 6 22 Jul 12:50:50 12:53:35 15° 273° (W) 12:56:20 437.425
ZACube-1 22 Jul 12:56:30 12:58:35 14° 307° (NW) 13:00:40 437.345
BUGSAT 1 22 Jul 13:03:48 13:07:26 28° 62° (ENE) 13:11:03 437.445
SO-50 22 Jul 13:14:51 13:18:25 22° 358° (N) 13:21:59 436.795
EO-88 22 Jul 13:21:22 13:24:37 30° 295° (WNW) 13:27:50 145.990 - 145.960
HO-68 22 Jul 13:23:40 13:27:18 15° 329° (NNW) 13:30:55 435.675
VELOX 1 22 Jul 13:27:53 13:29:10 11° 84° (E) 13:30:26 145.980
Oscar 11 22 Jul 13:29:45 13:30:53 11° 311° (NW) 13:32:00 .
LO-87 22 Jul 13:36:33 13:40:11 70° 102° (ESE) 13:43:47 145.935 - 145.965
DELFI C3 22 Jul 13:37:36 13:40:29 19° 301° (WNW) 13:43:22 145.870
Gurwin Techsat 1B 22 Jul 13:39:32 13:43:49 26° 55° (NE) 13:48:08 435.225
Oscar 19 22 Jul 13:40:25 13:44:58 34° 60° (ENE) 13:49:33 437.125/150
AIST 2D 22 Jul 13:41:04 13:43:37 19° 268° (W) 13:46:11 435.315
POLYITAN 1 22 Jul 13:53:44 13:57:39 34° 264° (W) 14:01:35 437.675
DUCHIFAT 1 22 Jul 13:56:20 14:00:19 39° 262° (W) 14:04:19 145.980
ESTCUBE 1 22 Jul 14:01:27 14:05:59 73° 104° (ESE) 14:10:29 437.505/2401.250
PCSat 22 Jul 14:05:10 14:10:02 32° 27° (NNE) 14:14:53 145.827
QB50P2 22 Jul 14:07:03 14:10:37 25° 267° (W) 14:14:12 145.880/145.840
AO-7 22 Jul 14:09:50 14:16:24 27° 38° (NE) 14:22:59 .
NO-84 22 Jul 14:18:00 14:20:28 20° 139° (SE) 14:23:06 435.350 FM
EO-79 22 Jul 14:20:46 14:24:02 21° 269° (W) 14:27:18 145.935-145.965
NANOSAT C BR1 22 Jul 14:22:59 14:26:17 22° 269° (W) 14:29:36 145.865
UKube-1 22 Jul 14:34:17 14:35:29 11° 85° (E) 14:36:41 .
BUGSAT 1 22 Jul 14:38:35 14:42:39 43° 261° (W) 14:46:44 437.445
SPROUT 22 Jul 14:42:42 14:46:56 55° 101° (E) 14:51:08 437.525
SO-50 22 Jul 14:56:04 15:00:06 30° 22° (NNE) 15:04:08 436.795
BEESAT 3 22 Jul 14:59:04 15:02:04 21° 117° (ESE) 15:05:06 437.485
VELOX 1 22 Jul 15:01:58 15:06:28 71° 104° (ESE) 15:10:55 145.980
50 SAT 22 Jul 15:10:21 15:13:38 40° 99° (E) 15:16:53 437.505
LO-87 22 Jul 15:11:00 15:13:11 15° 302° (WNW) 15:15:20 145.935 - 145.965
Gurwin Techsat 1B 22 Jul 15:18:02 15:23:21 72° 256° (WSW) 15:28:42 435.225
DX 1 22 Jul 15:18:28 15:22:35 37° 97° (E) 15:26:40 434.975-435.025
Oscar 19 22 Jul 15:19:13 15:24:10 49° 260° (W) 15:29:10 437.125/150
ITAMSAT 1 22 Jul 15:24:46 15:29:11 28° 57° (ENE) 15:33:35 435.822/435.867
AO-85 22 Jul 15:25:01 15:28:36 33° 123° (ESE) 15:32:09 145.980
BEESAT 2 22 Jul 15:31:38 15:34:13 17° 115° (ESE) 15:36:49 435.950
ESTCUBE 1 22 Jul 15:39:01 15:42:21 21° 303° (WNW) 15:45:41 437.505/2401.250
RS-15 22 Jul 15:43:20 15:46:52 12° 86° (E) 15:50:24 29.354- 29.394
PCSat 22 Jul 15:48:36 15:54:05 89° 249° (WSW) 15:59:32 145.827
NO-84 22 Jul 15:54:07 15:57:28 72° 160° (SSE) 16:01:08 435.350 FM
AO-7 22 Jul 15:59:39 16:07:57 70° 61° (ENE) 16:16:17 .
UKube-1 22 Jul 16:07:57 16:12:19 73° 105° (ESE) 16:16:39 .
SPROUT 22 Jul 16:19:09 16:22:34 23° 301° (WNW) 16:25:57 437.525
MOZHAYETS 4 22 Jul 16:19:30 16:21:15 12° 84° (E) 16:23:01
BEESAT 22 Jul 16:25:45 16:28:59 18° 88° (E) 16:32:10 436.000
BEESAT 3 22 Jul 16:35:14 16:39:15 74° 318° (NW) 16:43:19 437.485
ITUPSAT 1 22 Jul 16:36:27 16:40:05 21° 90° (E) 16:43:42 437.325
SO-50 22 Jul 16:36:32 16:41:05 89° 55° (NE) 16:45:40 436.795
VELOX 1 22 Jul 16:39:09 16:42:29 21° 303° (WNW) 16:45:49 145.980
50 SAT 22 Jul 16:43:29 16:46:10 21° 298° (WNW) 16:48:50 437.505
O/OREOS (USA 219) 22 Jul 16:52:57 16:55:56 18° 102° (ESE) 16:58:55 437.305
HO-68 22 Jul 16:54:43 16:56:40 11° 22° (NNE) 16:58:37 435.675
DX 1 22 Jul 16:54:46 16:58:46 34° 297° (WNW) 17:02:43 434.975-435.025
Gurwin Techsat 1B 22 Jul 17:01:34 17:04:17 14° 276° (W) 17:07:00 435.225
ITAMSAT 1 22 Jul 17:03:08 17:08:20 63° 257° (WSW) 17:13:34 435.822/435.867
AO-85 22 Jul 17:05:06 17:08:53 46° 325° (NW) 17:12:43 145.980
BEESAT 2 22 Jul 17:07:23 17:11:26 88° 325° (NW) 17:15:31 435.950
DOVE 4 22 Jul 17:21:43 17:25:34 23° 55° (NE) 17:29:32 437.250
NO-84 22 Jul 17:31:28 17:35:00 77° 2° (N) 17:38:52 435.350 FM
PCSat 22 Jul 17:32:52 17:36:50 21° 251° (WSW) 17:40:45 145.827
RS-15 22 Jul 17:44:29 17:55:44 46° 112° (ESE) 18:07:02 29.354- 29.394
UKube-1 22 Jul 17:44:46 17:47:54 20° 304° (NW) 17:51:02 .
AO-7 22 Jul 17:53:40 18:01:18 38° 264° (W) 18:09:01 .
MOZHAYETS 4 22 Jul 17:54:39 17:59:15 75° 104° (ESE) 18:03:48
XW-2C 22 Jul 17:54:42 17:56:37 14° 56° (NE) 17:58:33 145.795 - 145.815
BEESAT 22 Jul 18:02:34 18:07:21 80° 288° (WNW) 18:12:06 436.000
LilacSat-2 22 Jul 18:13:12 18:16:01 20° 61° (ENE) 18:18:51 437.200
ITUPSAT 1 22 Jul 18:13:38 18:18:23 67° 290° (WNW) 18:23:06 437.325
BEESAT 3 22 Jul 18:14:05 18:17:26 24° 340° (NNW) 18:20:48 437.485
NUDT-PHONESAT 22 Jul 18:15:03 18:17:20 16° 58° (ENE) 18:19:38 437.300
SO-50 22 Jul 18:17:48 18:21:00 19° 245° (WSW) 18:24:12 436.795
CUBESAT XI-V 22 Jul 18:20:37 18:24:52 34° 95° (E) 18:29:07 437.345
KAITUO 1B 22 Jul 18:24:08 18:26:49 19° 60° (ENE) 18:29:31 145.475/437.950
CUTE-I 22 Jul 18:27:49 18:32:38 35° 60° (ENE) 18:37:28 437.470
O/OREOS (USA 219) 22 Jul 18:30:18 18:34:48 78° 302° (WNW) 18:39:19 437.305
XW-2F 22 Jul 18:33:40 18:36:51 27° 64° (ENE) 18:40:04 145.980 - 146.000
HO-68 22 Jul 18:36:20 18:42:09 28° 47° (NE) 18:47:59 435.675
CUTE 1.7 + AOD 2 22 Jul 18:40:24 18:41:21 11° 50° (NE) 18:42:17 437.475
BEESAT 2 22 Jul 18:46:12 18:49:41 27° 337° (NNW) 18:53:11 435.950
ITAMSAT 1 22 Jul 18:47:01 18:48:53 12° 278° (W) 18:50:44 435.822/435.867
AO-85 22 Jul 18:47:11 18:50:09 20° 349° (NNW) 18:53:10 145.980
YUBILEINY 22 Jul 18:55:47 19:01:20 19° 70° (ENE) 19:06:54 435.215
DOVE 4 22 Jul 18:57:46 19:02:41 78° 257° (WSW) 19:07:54 437.250
SEEDS 22 Jul 18:58:54 18:59:46 11° 50° (NE) 19:00:38 437.485
KKS-1 22 Jul 18:59:04 19:03:21 42° 99° (E) 19:07:35 437.445
XW-2D 22 Jul 18:59:30 19:03:09 51° 70° (ENE) 19:06:49 145.860 - 145.880
NO-84 22 Jul 19:08:51 19:12:32 66° 202° (SSW) 19:16:32 435.350 FM
XW-2B 22 Jul 19:09:23 19:13:06 62° 72° (ENE) 19:16:50 145.730 - 145.750
CUBEBUG 2 22 Jul 19:20:49 19:23:38 16° 54° (NE) 19:26:27 437.445
XW-2C 22 Jul 19:26:31 19:30:16 86° 250° (WSW) 19:34:04 145.795 - 145.815
MOZHAYETS 4 22 Jul 19:32:37 19:35:57 20° 304° (NW) 19:39:16
STARS 22 Jul 19:37:51 19:42:07 44° 99° (E) 19:46:20 437.465
BEESAT 22 Jul 19:41:26 19:44:27 17° 309° (NW) 19:47:27 436.000
LilacSat-2 22 Jul 19:46:20 19:50:02 51° 260° (W) 19:53:44 437.200
NUDT-PHONESAT 22 Jul 19:47:09 19:50:49 68° 257° (WSW) 19:54:30 437.300
AAUSAT CUBESAT 2 22 Jul 19:50:16 19:52:39 15° 55° (NE) 19:55:04 437.432
ITUPSAT 1 22 Jul 19:52:50 19:55:24 15° 311° (NW) 19:57:59 437.325
BEESAT 3 22 Jul 19:53:22 19:56:14 18° 3° (N) 19:59:06 437.485
AO-73 22 Jul 19:54:10 19:55:27 11° 50° (NE) 19:56:43 145.935
RS-15 22 Jul 19:55:09 20:07:33 81° 319° (NW) 20:19:56 29.354- 29.394
KAITUO 1B 22 Jul 19:56:55 20:00:32 52° 260° (W) 20:04:10 145.475/437.950
CUBESAT XI-V 22 Jul 19:57:58 20:02:20 40° 295° (WNW) 20:06:40 437.345
CUTE-I 22 Jul 20:07:19 20:12:33 51° 260° (W) 20:17:48 437.470
XW-2F 22 Jul 20:07:28 20:10:55 34° 263° (W) 20:14:22 145.980 - 146.000
O/OREOS (USA 219) 22 Jul 20:11:44 20:14:57 19° 324° (NW) 20:18:12 437.305
CUTE 1.7 + AOD 2 22 Jul 20:12:12 20:16:19 56° 70° (ENE) 20:20:27 437.475
XW-2A 22 Jul 20:20:58 20:24:11 41° 69° (ENE) 20:27:24 145.665 - 145.685
HO-68 22 Jul 20:21:54 20:29:07 87° 70° (ENE) 20:36:21 435.675
UWE-3 22 Jul 20:24:02 20:28:02 31° 63° (ENE) 20:31:57 435.000/436.395/437.385
BEESAT 2 22 Jul 20:25:43 20:28:37 18° 0° (N) 20:31:31 435.950
AO-85 22 Jul 20:28:45 20:31:49 21° 13° (NNE) 20:34:57 145.980
SEEDS 22 Jul 20:30:32 20:34:35 56° 71° (ENE) 20:38:42 437.485
XW-2D 22 Jul 20:34:55 20:37:38 19° 269° (W) 20:40:20 145.860 - 145.880
KKS-1 22 Jul 20:35:50 20:39:49 32° 298° (WNW) 20:43:47 437.445
DOVE 4 22 Jul 20:38:38 20:41:19 14° 278° (W) 20:44:03 437.250
ZACube-1 22 Jul 20:45:04 20:48:52 29° 62° (ENE) 20:52:36 437.345
XW-2B 22 Jul 20:45:22 20:47:41 16° 271° (W) 20:50:01 145.730 - 145.750
NO-84 22 Jul 20:46:38 20:49:39 22° 220° (SW) 20:52:49 435.350 FM
YUBILEINY 22 Jul 20:47:44 20:56:27 67° 94° (E) 21:05:11 435.215
CUBEBUG 2 22 Jul 20:54:55 20:59:37 81° 74° (ENE) 21:04:15 437.445
XW-2C 22 Jul 21:04:16 21:05:07 11° 275° (W) 21:05:57 145.795 - 145.815
STARS 22 Jul 21:14:28 21:18:20 30° 299° (WNW) 21:22:09 437.465
Oscar 11 22 Jul 21:16:35 21:20:33 37° 65° (ENE) 21:24:32 .
DELFI C3 22 Jul 21:21:08 21:23:13 14° 55° (NE) 21:25:19 145.870
AAUSAT CUBESAT 2 22 Jul 21:23:26 21:27:32 89° 256° (WSW) 21:31:42 437.432
AO-73 22 Jul 21:26:31 21:30:51 57° 70° (ENE) 21:35:06 145.935
BEESAT 3 22 Jul 21:31:19 21:34:55 30° 27° (NNE) 21:38:30 437.485
STRAND 1 22 Jul 21:31:28 21:36:24 44° 98° (E) 21:41:16 437.568
CUTE 1.7 + AOD 2 22 Jul 21:49:20 21:52:30 20° 270° (W) 21:55:41 437.475
XW-2A 22 Jul 21:54:38 21:57:06 19° 268° (W) 21:59:35 145.665 - 145.685
FO-29 22 Jul 21:55:05 21:57:49 12° 73° (ENE) 22:00:28 435.910
UWE-3 22 Jul 22:00:00 22:04:22 44° 262° (W) 22:08:40 435.000/436.395/437.385
BEESAT 2 22 Jul 22:03:59 22:07:33 27° 24° (NNE) 22:11:04 435.950
SEEDS 22 Jul 22:07:32 22:10:38 20° 270° (W) 22:13:46 437.485
AO-85 22 Jul 22:09:05 22:13:02 49° 36° (NE) 22:17:11 145.980
RS-15 22 Jul 22:09:47 22:21:52 53° 350° (N) 22:33:42 29.354- 29.394
HO-68 22 Jul 22:11:59 22:17:44 25° 271° (W) 22:23:32 435.675
ZACube-1 22 Jul 22:20:44 22:25:01 45° 262° (W) 22:29:13 437.345
EO-88 22 Jul 22:31:31 22:34:52 35° 67° (ENE) 22:38:13 145.990 - 145.960
CUBEBUG 2 22 Jul 22:33:42 22:36:48 17° 273° (W) 22:39:51 437.445
YUBILEINY 22 Jul 22:45:44 22:53:55 40° 299° (WNW) 23:02:08 435.215
LO-87 22 Jul 22:48:00 22:49:19 12° 55° (NE) 22:50:38 145.935 - 145.965
Oscar 11 22 Jul 22:52:53 22:56:45 32° 265° (W) 23:00:39 .
DELFI C3 22 Jul 22:53:27 22:57:24 88° 74° (ENE) 23:01:24 145.870
UNISAT 6 22 Jul 22:58:29 23:00:06 12° 84° (E) 23:01:42 437.425
AAUSAT CUBESAT 2 22 Jul 23:01:49 23:03:39 13° 274° (W) 23:05:30 437.432
AO-73 22 Jul 23:03:58 23:07:24 22° 269° (W) 23:10:48 145.935
BEESAT 3 22 Jul 23:08:49 23:12:51 72° 228° (SW) 23:16:49 437.485
STRAND 1 22 Jul 23:10:51 23:15:32 37° 298° (WNW) 23:20:11 437.568
ESTCUBE 1 22 Jul 23:31:40 23:35:16 24° 59° (ENE) 23:38:54 437.505/2401.250
FO-29 22 Jul 23:37:35 23:44:54 51° 96° (E) 23:51:26 435.910
BEESAT 2 22 Jul 23:41:40 23:45:46 87° 219° (SW) 23:49:50 435.950
TIGRISAT 22 Jul 23:42:07 23:45:50 26° 93° (E) 23:49:28 435.000
Tancredo 1 22 Jul 23:43:00 23:45:10 19° 151° (SSE) 23:47:21 437.200
PRISM 22 Jul 23:48:57 23:52:31 26° 94° (E) 23:56:03 437.425
AO-85 22 Jul 23:49:35 23:53:21 35° 236° (SW) 23:57:19 145.980
EO-88 23 Jul 00:05:34 00:08:38 25° 266° (W) 00:11:42 145.990 - 145.960
SPROUT 23 Jul 00:08:11 00:11:00 17° 55° (NE) 00:13:48 437.525
ISS 23 Jul 00:14:56 00:17:16 18° 148° (SSE) 00:19:36 437.550
LO-87 23 Jul 00:18:29 00:22:08 80° 74° (ENE) 00:25:48 145.935 - 145.965
RS-15 23 Jul 00:24:41 00:36:55 60° 23° (NNE) 00:48:39 29.354- 29.394
VELOX 1 23 Jul 00:30:13 00:33:44 24° 58° (ENE) 00:37:18 145.980
DELFI C3 23 Jul 00:31:07 00:32:47 12° 274° (W) 00:34:28 145.870
UNISAT 6 23 Jul 00:33:11 00:37:38 78° 105° (ESE) 00:41:56 437.425
DX 1 23 Jul 00:46:32 00:48:54 14° 51° (NE) 00:51:16 434.975-435.025
BEESAT 3 23 Jul 00:48:01 00:49:43 12° 248° (WSW) 00:51:25 437.485
YUBILEINY 23 Jul 00:49:35 00:53:59 14° 328° (NNW) 00:58:24 435.215
AIST 2D 23 Jul 00:58:36 01:01:21 21° 93° (E) 01:04:06 435.315
nSIGHT-1 23 Jul 00:59:01 01:01:53 30° 158° (SSE) 01:04:46 .
M-CUBED/EXP-1 PRIME 23 Jul 01:03:27 01:07:52 54° 107° (ESE) 01:12:25 437.505
ESTCUBE 1 23 Jul 01:07:23 01:11:47 57° 259° (W) 01:16:14 437.505/2401.250
O/OREOS (USA 219) 23 Jul 01:15:26 01:19:06 24° 41° (NE) 01:22:45 437.305
Tancredo 1 23 Jul 01:17:19 01:20:10 45° 170° (S) 01:23:00 437.200
TIGRISAT 23 Jul 01:18:32 01:22:45 46° 293° (WNW) 01:26:51 435.000
BEESAT 2 23 Jul 01:20:28 01:22:57 16° 246° (WSW) 01:25:24 435.950
FO-29 23 Jul 01:22:45 01:29:55 48° 300° (WNW) 01:36:25 435.910
PRISM 23 Jul 01:23:59 01:27:58 43° 293° (WNW) 01:31:55 437.425
POLYITAN 1 23 Jul 01:31:36 01:35:07 24° 93° (E) 01:38:34 437.675
DUCHIFAT 1 23 Jul 01:33:38 01:36:54 21° 91° (E) 01:40:07 145.980
UKube-1 23 Jul 01:33:45 01:37:11 23° 58° (ENE) 01:40:39 .
SPROUT 23 Jul 01:42:02 01:46:22 85° 256° (WSW) 01:50:42 437.525
QB50P2 23 Jul 01:44:14 01:48:08 34° 96° (E) 01:51:58 145.880/145.840
50 SAT 23 Jul 01:47:46 01:51:01 44° 69° (ENE) 01:54:19 437.505
ISS 23 Jul 01:50:07 01:53:15 45° 167° (SSE) 01:56:24 437.550
LO-87 23 Jul 01:54:37 01:56:05 12° 273° (W) 01:57:33 145.935 - 145.965
EO-79 23 Jul 01:57:16 02:01:18 41° 98° (E) 02:05:17 145.935-145.965
NANOSAT C BR1 23 Jul 01:59:12 02:03:11 39° 98° (E) 02:07:07 145.865
BEESAT 23 Jul 02:05:25 02:05:51 10° 44° (NE) 02:06:17 436.000
VELOX 1 23 Jul 02:05:30 02:09:53 59° 259° (WSW) 02:14:18 145.980
UNISAT 6 23 Jul 02:10:48 02:13:50 18° 305° (NW) 02:16:49 437.425
BUGSAT 1 23 Jul 02:14:08 02:16:59 18° 89° (E) 02:19:48 437.445
ITUPSAT 1 23 Jul 02:15:16 02:17:00 12° 46° (NE) 02:18:43 437.325
DX 1 23 Jul 02:20:02 02:24:23 75° 71° (ENE) 02:28:47 434.975-435.025
AIST 2D 23 Jul 02:31:27 02:34:42 37° 291° (WNW) 02:37:57 435.315
nSIGHT-1 23 Jul 02:34:49 02:37:59 54° 177° (S) 02:41:09 .
RS-15 23 Jul 02:38:01 02:50:14 76° 232° (SW) 03:01:50 29.354- 29.394
M-CUBED/EXP-1 PRIME 23 Jul 02:38:14 02:42:04 29° 305° (NW) 02:46:02 437.505
Tancredo 1 23 Jul 02:52:30 02:55:21 45° 190° (S) 02:58:13 437.200
O/OREOS (USA 219) 23 Jul 02:54:31 02:59:00 75° 243° (WSW) 03:03:29 437.305
POLYITAN 1 23 Jul 03:07:03 03:11:07 47° 292° (WNW) 03:15:09 437.675
UKube-1 23 Jul 03:08:40 03:12:55 57° 258° (WSW) 03:17:13 .
FO-29 23 Jul 03:08:42 03:13:12 17° 324° (NW) 03:17:30 435.910
DUCHIFAT 1 23 Jul 03:08:46 03:12:53 54° 291° (WNW) 03:16:57 145.980
QB50P2 23 Jul 03:20:05 03:23:56 34° 296° (WNW) 03:27:45 145.880/145.840
SPROUT 23 Jul 03:21:01 03:22:58 13° 275° (W) 03:24:55 437.525
50 SAT 23 Jul 03:21:34 03:23:59 18° 268° (W) 03:26:25 437.505
Oscar 19 23 Jul 03:23:37 03:28:23 36° 96° (E) 03:33:07 437.125/150
ISS 23 Jul 03:26:19 03:29:30 51° 187° (S) 03:32:41 437.550
MOZHAYETS 4 23 Jul 03:26:47 03:30:35 26° 60° (ENE) 03:34:22
Gurwin Techsat 1B 23 Jul 03:27:36 03:32:09 28° 92° (E) 03:36:40 435.225
EO-79 23 Jul 03:33:17 03:36:57 29° 298° (WNW) 03:40:36 145.935-145.965
NANOSAT C BR1 23 Jul 03:35:07 03:38:49 30° 297° (WNW) 03:42:29 145.865
BEESAT 23 Jul 03:38:00 03:42:31 43° 65° (ENE) 03:47:02 436.000
BUGSAT 1 23 Jul 03:48:39 03:52:47 64° 289° (WNW) 03:56:49 437.445
ITUPSAT 1 23 Jul 03:49:11 03:53:50 51° 67° (ENE) 03:58:29 437.325
CUBESAT XI-V 23 Jul 03:55:42 03:58:05 14° 51° (NE) 04:00:29 437.345
AO-7 23 Jul 03:55:49 03:59:29 13° 78° (ENE) 04:03:09 .
DX 1 23 Jul 03:58:14 04:01:06 17° 271° (W) 04:03:59 434.975-435.025
nSIGHT-1 23 Jul 04:11:06 04:14:08 38° 197° (SSW) 04:17:10 .
Tancredo 1 23 Jul 04:28:09 04:30:20 19° 209° (SSW) 04:32:32 437.200
KKS-1 23 Jul 04:28:54 04:31:44 17° 53° (NE) 04:34:35 437.445
O/OREOS (USA 219) 23 Jul 04:35:50 04:37:37 12° 262° (W) 04:39:24 437.305
DUCHIFAT 1 23 Jul 04:46:56 04:47:40 10° 311° (NW) 04:48:24 145.980
RS-15 23 Jul 04:51:25 05:00:43 28° 259° (W) 05:09:43 29.354- 29.394
YUBILEINY 23 Jul 04:53:00 04:58:25 17° 38° (NE) 05:03:48 435.215
ISS 23 Jul 05:02:52 05:05:34 24° 207° (SSW) 05:08:17 437.550
Oscar 19 23 Jul 05:02:56 05:07:49 44° 296° (WNW) 05:12:42 437.125/150
MOZHAYETS 4 23 Jul 05:02:59 05:07:29 54° 260° (W) 05:12:00
STARS 23 Jul 05:06:18 05:09:10 17° 54° (NE) 05:12:02 437.465
Gurwin Techsat 1B 23 Jul 05:07:13 05:12:28 59° 293° (WNW) 05:17:41 435.225
ITAMSAT 1 23 Jul 05:09:19 05:13:49 28° 93° (E) 05:18:15 435.822/435.867
BEESAT 23 Jul 05:16:05 05:20:24 33° 264° (W) 05:24:45 436.000
BUGSAT 1 23 Jul 05:25:50 05:27:21 12° 309° (NW) 05:28:51 437.445
ITUPSAT 1 23 Jul 05:27:48 05:31:55 28° 266° (W) 05:36:02 437.325
CUBESAT XI-V 23 Jul 05:30:07 05:34:41 69° 72° (ENE) 05:39:17 437.345
AO-7 23 Jul 05:46:14 05:54:25 53° 102° (ESE) 06:02:32 .
nSIGHT-1 23 Jul 05:48:13 05:49:55 14° 216° (SW) 05:51:38 .
KKS-1 23 Jul 06:03:11 06:07:41 86° 70° (ENE) 06:12:13 437.445
PCSat 23 Jul 06:38:20 06:42:09 20° 108° (ESE) 06:45:59 145.827
STARS 23 Jul 06:40:29 06:44:56 90° 89° (E) 06:49:25 437.465
Oscar 19 23 Jul 06:44:25 06:45:58 11° 317° (NW) 06:47:31 437.125/150
ITAMSAT 1 23 Jul 06:48:29 06:53:36 57° 293° (WNW) 06:58:41 435.822/435.867
Gurwin Techsat 1B 23 Jul 06:48:33 06:51:27 15° 314° (NW) 06:54:21 435.225
YUBILEINY 23 Jul 06:49:26 06:57:58 50° 66° (ENE) 07:06:23 435.215
DOVE 4 23 Jul 06:50:12 06:54:22 23° 88° (E) 06:58:28 437.250
CUBESAT XI-V 23 Jul 07:09:14 07:12:33 19° 271° (W) 07:15:54 437.345
LilacSat-2 23 Jul 07:14:25 07:15:44 11° 86° (E) 07:17:03 437.200
STRAND 1 23 Jul 07:16:14 07:20:23 25° 56° (NE) 07:24:32 437.568
KAITUO 1B 23 Jul 07:23:37 07:24:10 10° 85° (E) 07:24:44 145.475/437.950
XW-2F 23 Jul 07:33:17 07:35:38 16° 89° (E) 07:38:00 145.980 - 146.000
AO-7 23 Jul 07:39:14 07:47:16 53° 305° (NW) 07:55:17 .
KKS-1 23 Jul 07:42:15 07:44:52 15° 273° (W) 07:47:31 437.445
HO-68 23 Jul 07:45:04 07:47:13 11° 77° (ENE) 07:49:22 435.675
XW-2D 23 Jul 07:59:26 08:02:47 30° 95° (E) 08:06:08 145.860 - 145.880
XW-2B 23 Jul 08:09:20 08:12:50 36° 97° (E) 08:16:20 145.730 - 145.750
FO-29 23 Jul 08:13:55 08:19:00 19° 39° (NE) 08:24:03 435.910
CUTE-I 23 Jul 08:17:14 08:22:17 40° 97° (E) 08:27:18 437.470
PCSat 23 Jul 08:19:24 08:24:50 86° 130° (SE) 08:30:20 145.827
STARS 23 Jul 08:19:30 08:21:56 14° 273° (W) 08:24:22 437.465
XW-2C 23 Jul 08:26:26 08:30:08 54° 101° (E) 08:33:50 145.795 - 145.815
DOVE 4 23 Jul 08:27:15 08:32:34 73° 288° (WNW) 08:37:47 437.250
ITAMSAT 1 23 Jul 08:29:24 08:32:05 14° 314° (NW) 08:34:46 435.822/435.867
SO-50 23 Jul 08:37:21 08:41:10 27° 120° (ESE) 08:44:58 436.795
CUBEBUG 2 23 Jul 08:41:33 08:42:31 11° 82° (E) 08:43:29 437.445
NUDT-PHONESAT 23 Jul 08:44:30 08:48:10 65° 101° (ESE) 08:51:49 437.300
YUBILEINY 23 Jul 08:46:31 08:54:56 53° 271° (W) 09:03:16 435.215
LilacSat-2 23 Jul 08:46:49 08:50:37 88° 274° (W) 08:54:24 437.200
STRAND 1 23 Jul 08:54:01 08:59:10 70° 256° (WSW) 09:04:20 437.568
KAITUO 1B 23 Jul 08:55:04 08:58:48 85° 104° (ESE) 09:02:31 145.475/437.950
XW-2F 23 Jul 09:06:28 09:10:10 61° 288° (WNW) 09:13:52 145.980 - 146.000
XW-2A 23 Jul 09:09:14 09:11:34 17° 92° (E) 09:13:53 145.665 - 145.685
TIGRISAT 23 Jul 09:13:54 09:15:15 11° 48° (NE) 09:16:36 435.000
CUTE 1.7 + AOD 2 23 Jul 09:25:52 09:29:57 45° 98° (E) 09:34:01 437.475
HO-68 23 Jul 09:29:50 09:36:48 51° 100° (E) 09:43:43 435.675
AO-7 23 Jul 09:32:30 09:38:22 22° 329° (NNW) 09:44:14 .
XW-2D 23 Jul 09:33:38 09:36:59 31° 294° (WNW) 09:40:21 145.860 - 145.880
SEEDS 23 Jul 09:42:57 09:47:00 44° 98° (E) 09:51:02 437.485
UWE-3 23 Jul 09:43:00 09:46:29 24° 92° (E) 09:49:53 435.000/436.395/437.385
XW-2B 23 Jul 09:43:44 09:46:56 27° 296° (WNW) 09:50:08 145.730 - 145.750
FO-29 23 Jul 09:55:00 10:02:25 52° 61° (ENE) 10:09:57 435.910
CUTE-I 23 Jul 09:57:21 10:02:24 43° 297° (WNW) 10:07:26 437.470
XW-2C 23 Jul 10:01:18 10:04:02 19° 300° (WNW) 10:06:45 145.795 - 145.815
UNISAT 6 23 Jul 10:02:24 10:06:13 26° 60° (ENE) 10:09:58 437.425
ZACube-1 23 Jul 10:02:29 10:05:46 22° 91° (E) 10:09:00 437.345
PCSat 23 Jul 10:03:58 10:08:51 32° 332° (NNW) 10:13:45 145.827
DOVE 4 23 Jul 10:06:00 10:09:25 18° 309° (NW) 10:12:49 437.250
CUBEBUG 2 23 Jul 10:15:38 10:20:01 73° 102° (ESE) 10:24:15 437.445
SO-50 23 Jul 10:16:50 10:21:20 66° 321° (NW) 10:25:51 436.795
NUDT-PHONESAT 23 Jul 10:19:19 10:21:40 16° 301° (WNW) 10:24:01 437.300
M-CUBED/EXP-1 PRIME 23 Jul 10:21:59 10:25:14 28° 54° (NE) 10:28:43 437.505
LilacSat-2 23 Jul 10:22:31 10:24:19 13° 305° (NW) 10:26:07 437.200
KAITUO 1B 23 Jul 10:30:24 10:32:17 14° 304° (NW) 10:34:10 145.475/437.950
Oscar 11 23 Jul 10:32:46 10:36:37 30° 94° (E) 10:40:25 .
AAUSAT CUBESAT 2 23 Jul 10:33:58 10:38:08 69° 103° (ESE) 10:42:18 437.432
STRAND 1 23 Jul 10:36:58 10:39:19 13° 277° (W) 10:41:40 437.568
XW-2A 23 Jul 10:41:19 10:44:31 43° 291° (WNW) 10:47:42 145.665 - 145.685
AO-73 23 Jul 10:43:46 10:47:49 46° 99° (E) 10:51:48 145.935
PRISM 23 Jul 10:44:09 10:48:03 45° 67° (ENE) 10:52:02 437.425
YUBILEINY 23 Jul 10:45:42 10:49:34 14° 295° (WNW) 10:53:26 435.215
TIGRISAT 23 Jul 10:46:30 10:51:00 52° 69° (ENE) 10:55:27 435.000
CUTE 1.7 + AOD 2 23 Jul 11:02:02 11:05:37 27° 298° (WNW) 11:09:12 437.475
QB50P2 23 Jul 11:10:30 11:11:59 12° 50° (NE) 11:13:28 145.880/145.840
HO-68 23 Jul 11:17:46 11:24:34 48° 302° (WNW) 11:31:20 435.675
SEEDS 23 Jul 11:18:57 11:22:32 27° 298° (WNW) 11:26:06 437.485
UWE-3 23 Jul 11:19:05 11:23:12 48° 292° (WNW) 11:27:13 435.000/436.395/437.385
EO-79 23 Jul 11:22:42 11:24:47 14° 52° (NE) 11:26:53 145.935-145.965
NANOSAT C BR1 23 Jul 11:24:30 11:26:26 13° 52° (NE) 11:28:21 145.865
AO-7 23 Jul 11:24:32 11:28:12 14° 356° (N) 11:31:50 .
EO-88 23 Jul 11:27:26 11:30:04 19° 91° (E) 11:32:41 145.990 - 145.960
UNISAT 6 23 Jul 11:38:05 11:42:40 56° 259° (W) 11:47:11 437.425
ZACube-1 23 Jul 11:38:17 11:42:22 51° 291° (WNW) 11:46:23 437.345
AIST 2D 23 Jul 11:39:13 11:42:02 23° 64° (ENE) 11:44:53 435.315
CUTE-I 23 Jul 11:39:29 11:41:12 11° 319° (NW) 11:42:54 437.470
FO-29 23 Jul 11:39:58 11:47:26 52° 263° (W) 11:55:08 435.910
PCSat 23 Jul 11:49:44 11:53:51 21° 358° (N) 11:57:57 145.827
CUBEBUG 2 23 Jul 11:53:06 11:56:10 19° 304° (WNW) 11:59:11 437.445
M-CUBED/EXP-1 PRIME 23 Jul 11:56:02 11:59:33 40° 256° (WSW) 12:03:21 437.505
DELFI C3 23 Jul 11:58:17 12:02:15 57° 101° (E) 12:06:13 145.870
SO-50 23 Jul 11:58:42 12:02:31 26° 343° (NNW) 12:06:22 436.795
